TimePDT,TemperatureF,Dew PointF,Humidity,Sea Level PressureIn,VisibilityMPH,Wind Direction,Wind SpeedMPH,Gust SpeedMPH,PrecipitationIn,Events,Conditions,WindDirDegrees,DateUTC
12:53 AM,57.0,16.0,20,29.95,10.0,North,9.2,-,N/A,,Clear,10,2013-05-21 07:53:00
1:53 AM,55.9,19.0,24,29.92,10.0,NNE,8.1,-,N/A,,Clear,20,2013-05-21 08:53:00
2:53 AM,48.0,27.0,44,29.89,10.0,SSE,5.8,-,N/A,,Clear,150,2013-05-21 09:53:00
3:53 AM,46.0,28.0,50,29.88,10.0,East,4.6,-,N/A,,Clear,90,2013-05-21 10:53:00
4:53 AM,45.0,26.1,48,29.86,10.0,Variable,6.9,-,N/A,,Clear,0,2013-05-21 11:53:00
5:53 AM,44.1,27.0,51,29.84,10.0,Calm,Calm,-,N/A,,Clear,0,2013-05-21 12:53:00
6:53 AM,50.0,30.0,46,29.84,10.0,East,4.6,-,N/A,,Clear,100,2013-05-21 13:53:00
7:53 AM,55.0,32.0,42,29.86,10.0,West,15.0,20.7,N/A,,Clear,260,2013-05-21 14:53:00
8:53 AM,55.9,30.9,39,29.92,10.0,West,8.1,18.4,N/A,,Clear,280,2013-05-21 15:53:00
9:53 AM,57.0,26.1,30,29.93,10.0,West,18.4,25.3,N/A,,Clear,260,2013-05-21 16:53:00
10:53 AM,55.9,30.0,37,29.93,10.0,WSW,12.7,23.0,N/A,,Mostly Cloudy,240,2013-05-21 17:53:00
11:53 AM,60.1,33.1,36,29.92,10.0,WSW,16.1,24.2,N/A,,Mostly Cloudy,250,2013-05-21 18:53:00
12:53 PM,60.1,33.1,36,29.92,10.0,SW,17.3,26.5,N/A,,Mostly Cloudy,230,2013-05-21 19:53:00
1:53 PM,57.9,39.0,49,29.94,10.0,West,15.0,20.7,0.00,Rain,Light Rain,270,2013-05-21 20:53:00
2:41 PM,55.4,33.8,44,29.93,10.0,WSW,16.1,27.6,0.00,Rain,Light Rain,250,2013-05-21 21:41:00
2:53 PM,57.0,34.0,42,29.96,10.0,WSW,19.6,24.2,0.00,Rain,Light Rain,240,2013-05-21 21:53:00
3:53 PM,57.0,32.0,39,29.98,10.0,West,18.4,24.2,0.00,,Mostly Cloudy,270,2013-05-21 22:53:00
4:53 PM,54.0,32.0,43,29.99,10.0,NW,21.9,27.6,N/A,,Mostly Cloudy,310,2013-05-21 23:53:00
5:53 PM,54.0,28.0,37,30.01,10.0,WNW,19.6,25.3,N/A,,Overcast,300,2013-05-22 00:53:00
6:53 PM,48.0,25.0,41,30.01,10.0,WNW,18.4,25.3,N/A,,Partly Cloudy,290,2013-05-22 01:53:00
7:53 PM,44.1,27.0,51,30.03,10.0,West,13.8,23.0,N/A,,Mostly Cloudy,270,2013-05-22 02:53:00
8:53 PM,41.0,26.1,55,30.06,10.0,West,8.1,-,N/A,,Mostly Cloudy,270,2013-05-22 03:53:00
9:53 PM,37.9,28.0,68,30.08,10.0,NNE,4.6,-,N/A,,Partly Cloudy,20,2013-05-22 04:53:00
10:53 PM,37.9,26.1,62,30.10,10.0,WNW,5.8,-,N/A,,Scattered Clouds,300,2013-05-22 05:53:00
11:53 PM,34.0,27.0,75,30.11,10.0,North,6.9,-,N/A,,Scattered Clouds,350,2013-05-22 06:53:00